QPF
0.08 0.06 0.06 0.06 0.05 0.04 0.04 0.05 0.04 0.04 0.05 0.06 0.05 0.05 0.05 0.04 0.04 0.05 0.03 0.02 0.01 0.01 0.02 0.02 0.01 0.01 0.01 0.01 0.01 0.01 0.01 0.01 0.01 0.01 0.01 0.02 0.02 0.02 0.02 0.02 0.02 0.02 0.02
0.10 0.08 0.05 0.04 0.04 0.05 0.04 0.05 0.05 0.05 0.05 0.06 0.05 0.05 0.05 0.04 0.03 0.03 0.03 0.02 0.01 0.01 0.01 0.01 0.02 0.02 0.02 0.02 0.02 0.02 0.02 0.02 0.02 0.02 0.02 0.03 0.03 0.03 0.03 0.03 0.03 0.03 0.03
0.09 0.10 0.08 0.05 0.04 0.05 0.04 0.04 0.05 0.05 0.06 0.05 0.05 0.04 0.05 0.04 0.04 0.03 0.02 0.02 0.01 0.01 0.01 0.01 0.01 0.01 0.02 0.02 0.02 0.03 0.03 0.03 0.03 0.04 0.04 0.04 0.04 0.04 0.03 0.03 0.03 0.03 0.03
0.07 0.07 0.08 0.07 0.06 0.07 0.06 0.05 0.04 0.05 0.05 0.05 0.05 0.04 0.04 0.04 0.04 0.04 0.03 0.02 0.01 0.01 0.01 0.01 0.01 0.01 0.01 0.01 0.02 0.03 0.03 0.04 0.04 0.05 0.05 0.05 0.05 0.04 0.04 0.04 0.04 0.03 0.03
0.05 0.05 0.06 0.08 0.10 0.09 0.08 0.08 0.06 0.05 0.05 0.04 0.04 0.04 0.05 0.05 0.05 0.04 0.03 0.02 0.02 0.02 0.02 0.02 0.02 0.02 0.02 0.02 0.02 0.02 0.03 0.03 0.04 0.04 0.05 0.05 0.04 0.04 0.03 0.03 0.04 0.04 0.03
0.04 0.04 0.05 0.06 0.07 0.06 0.07 0.10 0.10 0.08 0.06 0.05 0.04 0.04 0.04 0.05 0.07 0.06 0.04 0.03 0.02 0.02 0.02 0.02 0.03 0.03 0.03 0.03 0.02 0.02 0.02 0.02 0.03 0.03 0.03 0.03 0.03 0.02 0.02 0.02 0.02 0.03 0.02
0.03 0.03 0.03 0.04 0.04 0.05 0.06 0.07 0.08 0.08 0.09 0.06 0.04 0.04 0.05 0.04 0.05 0.07 0.07 0.04 0.02 0.02 0.02 0.02 0.02 0.02 0.02 0.02 0.02 0.03 0.02 0.03 0.03 0.02 0.02 0.02 0.02 0.02 0.02 0.02 0.02 0.02 0.02
0.03 0.03 0.03 0.03 0.03 0.04 0.05 0.06 0.07 0.08 0.08 0.07 0.05 0.03 0.04 0.04 0.04 0.05 0.07 0.07 0.05 0.03 0.02 0.02 0.02 0.01 0.02 0.02 0.02 0.02 0.02 0.03 0.03 0.02 0.02 0.02 0.02 0.02 0.02 0.02 0.02 0.02 0.02
0.03 0.03 0.03 0.03 0.03 0.03 0.04 0.06 0.06 0.07 0.08 0.08 0.06 0.04 0.03 0.03 0.04 0.04 0.05 0.06 0.07 0.06 0.05 0.04 0.03 0.02 0.02 0.02 0.02 0.02 0.02 0.02 0.02 0.02 0.03 0.03 0.03 0.03 0.02 0.02 0.02 0.02 0.02
0.03 0.04 0.04 0.04 0.03 0.03 0.03 0.04 0.05 0.05 0.06 0.07 0.08 0.07 0.05 0.04 0.04 0.04 0.05 0.04 0.06 0.07 0.07 0.06 0.05 0.04 0.04 0.03 0.02 0.02 0.02 0.02 0.01 0.01 0.02 0.01 0.01 0.01 0.01 0.01 0.01 0.01 0.02
0.03 0.04 0.04 0.04 0.03 0.03 0.02 0.02 0.02 0.03 0.04 0.04 0.06 0.08 0.08 0.06 0.05 0.05 0.05 0.04 0.05 0.05 0.06 0.06 0.06 0.06 0.05 0.04 0.03 0.02 0.02 0.02 0.02 0.01 0.01 0.01 0.00 0.00 0.00 0.00 0.01 0.01 0.01
0.03 0.03 0.04 0.04 0.03 0.03 0.02 0.02 0.02 0.02 0.03 0.03 0.04 0.04 0.07 0.08 0.07 0.06 0.07 0.06 0.05 0.04 0.05 0.05 0.05 0.06 0.05 0.04 0.03 0.03 0.03 0.03 0.02 0.01 0.01 0.01 0.01 0.01 0.01 0.01 0.01 0.01 0.02
0.02 0.02 0.03 0.03 0.03 0.02 0.02 0.02 0.02 0.02 0.02 0.03 0.03 0.04 0.04 0.06 0.07 0.08 0.07 0.07 0.07 0.05 0.04 0.04 0.04 0.04 0.04 0.04 0.04 0.03 0.03 0.02 0.01 0.01 0.01 0.01 0.01 0.01 0.01 0.01 0.01 0.01 0.01
0.03 0.03 0.04 0.04 0.03 0.03 0.02 0.03 0.03 0.03 0.03 0.03 0.03 0.03 0.04 0.04 0.04 0.05 0.07 0.07 0.07 0.05 0.05 0.04 0.05 0.04 0.03 0.03 0.03 0.03 0.02 0.02 0.02 0.01 0.01 0.01 0.01 0.01 0.01 0.01 0.01 0.01 0.01
0.02 0.02 0.04 0.05 0.03 0.03 0.03 0.03 0.04 0.05 0.04 0.03 0.03 0.03 0.03 0.04 0.04 0.04 0.05 0.05 0.05 0.05 0.04 0.04 0.04 0.03 0.03 0.02 0.02 0.02 0.02 0.02 0.02 0.02 0.02 0.01 0.01 0.01 0.01 0.01 0.01 0.01 0.02
0.02 0.02 0.04 0.04 0.03 0.03 0.03 0.03 0.04 0.04 0.03 0.02 0.02 0.02 0.03 0.03 0.04 0.04 0.04 0.04 0.05 0.05 0.05 0.04 0.03 0.03 0.02 0.02 0.02 0.02 0.02 0.02 0.02 0.02 0.02 0.02 0.02 0.01 0.01 0.01 0.01 0.01 0.01
0.02 0.03 0.04 0.03 0.03 0.03 0.03 0.03 0.04 0.04 0.04 0.03 0.02 0.02 0.02 0.02 0.02 0.03 0.03 0.03 0.04 0.05 0.04 0.03 0.03 0.02 0.02 0.02 0.02 0.02 0.02 0.02 0.02 0.02 0.02 0.02 0.02 0.02 0.02 0.01 0.01 0.01 0.01
0.03 0.03 0.03 0.03 0.03 0.03 0.03 0.03 0.03 0.03 0.03 0.03 0.02 0.02 0.01 0.02 0.02 0.02 0.02 0.02 0.02 0.02 0.03 0.03 0.03 0.03 0.02 0.02 0.02 0.02 0.02 0.02 0.03 0.03 0.03 0.02 0.02 0.02 0.02 0.02 0.01 0.01 0.01
0.03 0.04 0.04 0.04 0.04 0.03 0.03 0.02 0.02 0.02 0.02 0.02 0.02 0.02 0.02 0.01 0.02 0.02 0.02 0.02 0.01 0.01 0.01 0.01 0.02 0.02 0.02 0.02 0.02 0.02 0.02 0.02 0.02 0.02 0.02 0.02 0.02 0.02 0.02 0.01 0.01 0.01 0.01
0.02 0.03 0.04 0.04 0.04 0.04 0.03 0.03 0.02 0.02 0.02 0.02 0.02 0.02 0.01 0.01 0.01 0.01 0.01 0.01 0.01 0.01 0.01 0.01 0.01 0.01 0.01 0.01 0.01 0.01 0.01 0.01 0.02 0.02 0.02 0.02 0.02 0.02 0.02 0.01 0.01 0.01 0.01
0.02 0.02 0.03 0.04 0.04 0.04 0.04 0.04 0.04 0.03 0.02 0.02 0.02 0.02 0.02 0.01 0.02 0.01 0.01 0.01 0.01 0.01 0.01 0.01 0.01 0.01 0.01 0.01 0.01 0.01 0.01 0.01 0.01 0.01 0.01 0.02 0.02 0.02 0.01 0.01 0.01 0.02 0.02
0.02 0.02 0.02 0.03 0.03 0.04 0.04 0.04 0.04 0.04 0.03 0.03 0.02 0.02 0.02 0.02 0.01 0.01 0.01 0.01 0.01 0.01 0.01 0.01 0.01 0.01 0.01 0.01 0.01 0.01 0.01 0.01 0.01 0.01 0.01 0.02 0.02 0.02 0.02 0.01 0.02 0.02 0.02
0.02 0.02 0.02 0.03 0.03 0.03 0.04 0.04 0.04 0.04 0.03 0.03 0.03 0.03 0.02 0.02 0.02 0.01 0.01 0.01 0.01 0.01 0.01 0.01 0.01 0.01 0.01 0.01 0.01 0.01 0.02 0.02 0.02 0.02 0.02 0.02 0.02 0.02 0.02 0.02 0.02 0.02 0.02
0.02 0.03 0.03 0.03 0.03 0.03 0.04 0.04 0.04 0.04 0.04 0.03 0.03 0.02 0.02 0.02 0.02 0.02 0.01 0.01 0.01 0.01 0.01 0.01 0.01 0.01 0.01 0.01 0.01 0.01 0.02 0.02 0.02 0.02 0.02 0.02 0.03 0.03 0.03 0.03 0.02 0.02 0.03
0.02 0.03 0.03 0.03 0.03 0.03 0.03 0.03 0.03 0.03 0.04 0.03 0.03 0.03 0.02 0.02 0.02 0.02 0.02 0.02 0.02 0.02 0.02 0.02 0.02 0.02 0.02 0.01 0.02 0.02 0.02 0.02 0.02 0.02 0.02 0.03 0.03 0.03 0.03 0.03 0.03 0.03 0.03
0.02 0.02 0.02 0.03 0.03 0.03 0.03 0.03 0.02 0.03 0.03 0.03 0.02 0.02 0.03 0.03 0.03 0.03 0.03 0.03 0.03 0.02 0.02 0.02 0.02 0.02 0.02 0.02 0.02 0.02 0.03 0.03 0.03 0.03 0.03 0.03 0.03 0.04 0.04 0.04 0.04 0.04 0.04
MSLP
1028.08 1028.15 1028.25 1028.34 1028.37 1028.33 1028.20 1028.00 1027.77 1027.55 1027.35 1027.20 1027.10 1027.03 1026.94 1026.81 1026.61 1026.30 1025.89 1025.39 1024.83 1024.23 1023.64 1023.08 1022.55 1022.07 1021.62 1021.20 1020.79 1020.38 1019.98 1019.58 1019.20 1018.84 1018.49 1018.17 1017.85 1017.53 1017.21 1016.87 1016.54 1016.22 1015.94
1027.54 1027.67 1027.83 1027.98 1028.07 1028.08 1028.00 1027.83 1027.62 1027.38 1027.16 1026.96 1026.81 1026.69 1026.56 1026.42 1026.22 1025.94 1025.59 1025.16 1024.68 1024.16 1023.62 1023.10 1022.59 1022.10 1021.63 1021.17 1020.73 1020.30 1019.88 1019.48 1019.10 1018.73 1018.38 1018.04 1017.69 1017.32 1016.94 1016.53 1016.11 1015.71 1015.36
1026.93 1027.13 1027.35 1027.56 1027.71 1027.76 1027.72 1027.59 1027.38 1027.14 1026.88 1026.65 1026.44 1026.26 1026.09 1025.91 1025.70 1025.45 1025.14 1024.78 1024.37 1023.94 1023.48 1023.01 1022.54 1022.07 1021.60 1021.14 1020.69 1020.25 1019.83 1019.43 1019.06 1018.70 1018.35 1018.00 1017.63 1017.23 1016.79 1016.32 1015.83 1015.36 1014.93
1026.28 1026.53 1026.80 1027.05 1027.24 1027.33 1027.32 1027.21 1027.02 1026.78 1026.51 1026.24 1025.99 1025.75 1025.53 1025.31 1025.08 1024.84 1024.56 1024.25 1023.92 1023.55 1023.17 1022.76 1022.34 1021.91 1021.47 1021.02 1020.58 1020.15 1019.74 1019.35 1018.99 1018.65 1018.32 1017.97 1017.59 1017.17 1016.70 1016.18 1015.64 1015.11 1014.62
1025.63 1025.91 1026.19 1026.45 1026.65 1026.76 1026.76 1026.68 1026.51 1026.28 1026.01 1025.73 1025.44 1025.17 1024.90 1024.65 1024.39 1024.14 1023.87 1023.60 1023.31 1023.00 1022.68 1022.33 1021.97 1021.58 1021.17 1020.75 1020.32 1019.91 1019.52 1019.15 1018.82 1018.50 1018.18 1017.85 1017.48 1017.05 1016.56 1016.02 1015.45 1014.89 1014.36
1024.97 1025.25 1025.52 1025.75 1025.93 1026.03 1026.04 1025.97 1025.82 1025.62 1025.37 1025.10 1024.81 1024.51 1024.22 1023.92 1023.64 1023.36 1023.08 1022.81 1022.55 1022.28 1021.99 1021.70 1021.37 1021.03 1020.65 1020.26 1019.87 1019.48 1019.11 1018.77 1018.45 1018.16 1017.86 1017.55 1017.20 1016.78 1016.30 1015.77 1015.19 1014.61 1014.06
1024.33 1024.56 1024.78 1024.96 1025.09 1025.16 1025.16 1025.10 1024.98 1024.82 1024.60 1024.36 1024.08 1023.78 1023.47 1023.15 1022.82 1022.51 1022.21 1021.92 1021.65 1021.39 1021.14 1020.87 1020.58 1020.27 1019.93 1019.57 1019.20 1018.84 1018.49 1018.17 1017.87 1017.60 1017.33 1017.04 1016.71 1016.32 1015.87 1015.35 1014.79 1014.22 1013.67
1023.67 1023.84 1023.98 1024.09 1024.16 1024.18 1024.17 1024.12 1024.03 1023.90 1023.74 1023.53 1023.28 1022.99 1022.66 1022.31 1021.96 1021.60 1021.26 1020.94 1020.65 1020.38 1020.13 1019.88 1019.62 1019.34 1019.03 1018.70 1018.36 1018.02 1017.69 1017.39 1017.12 1016.86 1016.61 1016.35 1016.04 1015.68 1015.26 1014.77 1014.24 1013.69 1013.15
1022.99 1023.08 1023.14 1023.17 1023.17 1023.16 1023.13 1023.08 1023.02 1022.94 1022.82 1022.65 1022.42 1022.14 1021.80 1021.43 1021.03 1020.63 1020.24 1019.89 1019.57 1019.29 1019.03 1018.79 1018.55 1018.30 1018.03 1017.73 1017.42 1017.11 1016.81 1016.52 1016.26 1016.02 1015.79 1015.55 1015.26 1014.93 1014.54 1014.09 1013.59 1013.06 1012.55
1022.25 1022.28 1022.27 1022.23 1022.18 1022.13 1022.09 1022.05 1022.02 1021.96 1021.88 1021.74 1021.53 1021.24 1020.89 1020.49 1020.05 1019.60 1019.17 1018.78 1018.44 1018.14 1017.89 1017.66 1017.45 1017.23 1016.99 1016.73 1016.46 1016.18 1015.90 1015.64 1015.40 1015.17 1014.96 1014.73 1014.47 1014.16 1013.80 1013.37 1012.90 1012.40 1011.91
1021.48 1021.45 1021.39 1021.31 1021.23 1021.16 1021.11 1021.08 1021.06 1021.02 1020.95 1020.81 1020.60 1020.30 1019.92 1019.48 1019.00 1018.52 1018.05 1017.63 1017.27 1016.98 1016.73 1016.53 1016.35 1016.17 1015.97 1015.75 1015.52 1015.27 1015.03 1014.79 1014.57 1014.37 1014.17 1013.96 1013.72 1013.44 1013.10 1012.70 1012.25 1011.77 1011.28
1020.68 1020.63 1020.54 1020.44 1020.34 1020.27 1020.22 1020.19 1020.16 1020.12 1020.03 1019.87 1019.63 1019.30 1018.88 1018.40 1017.88 1017.36 1016.87 1016.44 1016.08 1015.80 1015.58 1015.41 1015.26 1015.12 1014.97 1014.80 1014.60 1014.40 1014.19 1013.98 1013.80 1013.62 1013.44 1013.26 1013.04 1012.78 1012.46 1012.08 1011.65 1011.18 1010.70
1019.90 1019.84 1019.75 1019.65 1019.55 1019.48 1019.42 1019.37 1019.32 1019.25 1019.11 1018.91 1018.61 1018.22 1017.75 1017.22 1016.67 1016.13 1015.64 1015.21 1014.87 1014.61 1014.42 1014.28 1014.18 1014.07 1013.96 1013.83 1013.67 1013.50 1013.33 1013.16 1013.01 1012.86 1012.73 1012.58 1012.39 1012.16 1011.87 1011.50 1011.08 1010.61 1010.13
1019.19 1019.13 1019.05 1018.96 1018.86 1018.78 1018.70 1018.62 1018.52 1018.38 1018.17 1017.89 1017.51 1017.05 1016.52 1015.95 1015.38 1014.84 1014.35 1013.94 1013.63 1013.40 1013.24 1013.14 1013.05 1012.98 1012.88 1012.77 1012.64 1012.50 1012.36 1012.23 1012.12 1012.02 1011.93 1011.82 1011.68 1011.49 1011.22 1010.89 1010.48 1010.01 1009.53
1018.59 1018.53 1018.46 1018.37 1018.27 1018.17 1018.05 1017.91 1017.73 1017.50 1017.19 1016.80 1016.33 1015.79 1015.21 1014.61 1014.02 1013.48 1013.02 1012.64 1012.36 1012.16 1012.03 1011.93 1011.86 1011.78 1011.69 1011.58 1011.46 1011.33 1011.21 1011.11 1011.04 1010.99 1010.96 1010.90 1010.82 1010.67 1010.45 1010.14 1009.75 1009.30 1008.81
1018.12 1018.06 1017.97 1017.87 1017.75 1017.60 1017.42 1017.20 1016.92 1016.57 1016.15 1015.65 1015.09 1014.48 1013.84 1013.22 1012.64 1012.12 1011.68 1011.34 1011.08 1010.90 1010.77 1010.66 1010.57 1010.46 1010.34 1010.21 1010.06 1009.93 1009.83 1009.76 1009.73 1009.73 1009.75 1009.76 1009.74 1009.64 1009.47 1009.20 1008.84 1008.41 1007.93
1017.76 1017.67 1017.57 1017.43 1017.26 1017.06 1016.80 1016.47 1016.08 1015.61 1015.07 1014.47 1013.82 1013.15 1012.48 1011.85 1011.27 1010.78 1010.37 1010.06 1009.81 1009.63 1009.48 1009.33 1009.19 1009.03 1008.85 1008.66 1008.49 1008.34 1008.24 1008.19 1008.20 1008.26 1008.34 1008.41 1008.45 1008.41 1008.29 1008.06 1007.73 1007.32 1006.86
1017.45 1017.33 1017.19 1017.01 1016.78 1016.50 1016.14 1015.72 1015.21 1014.63 1013.99 1013.29 1012.57 1011.86 1011.17 1010.54 1009.99 1009.52 1009.14 1008.83 1008.58 1008.37 1008.17 1007.96 1007.74 1007.50 1007.24 1007.00 1006.78 1006.61 1006.51 1006.49 1006.54 1006.65 1006.79 1006.93 1007.02 1007.04 1006.95 1006.76 1006.47 1006.09 1005.65
1017.13 1016.97 1016.78 1016.55 1016.26 1015.90 1015.46 1014.94 1014.33 1013.66 1012.93 1012.17 1011.40 1010.66 1009.97 1009.36 1008.82 1008.37 1007.99 1007.67 1007.39 1007.13 1006.85 1006.56 1006.24 1005.90 1005.57 1005.26 1005.01 1004.83 1004.74 1004.75 1004.85 1005.02 1005.22 1005.41 1005.55 1005.61 1005.56 1005.40 1005.12 1004.76 1004.36
1016.74 1016.54 1016.31 1016.03 1015.68 1015.25 1014.74 1014.14 1013.47 1012.72 1011.94 1011.14 1010.35 1009.60 1008.92 1008.31 1007.78 1007.33 1006.93 1006.58 1006.23 1005.88 1005.51 1005.11 1004.69 1004.26 1003.86 1003.50 1003.23 1003.05 1003.00 1003.06 1003.22 1003.45 1003.71 1003.95 1004.14 1004.23 1004.19 1004.04 1003.78 1003.43 1003.05
1016.23 1016.01 1015.74 1015.42 1015.03 1014.56 1014.00 1013.36 1012.64 1011.86 1011.05 1010.24 1009.45 1008.70 1008.02 1007.41 1006.87 1006.38 1005.93 1005.50 1005.06 1004.60 1004.11 1003.59 1003.06 1002.55 1002.09 1001.71 1001.44 1001.30 1001.31 1001.44 1001.68 1001.99 1002.31 1002.61 1002.82 1002.93 1002.90 1002.74 1002.47 1002.13 1001.76
1015.61 1015.37 1015.09 1014.75 1014.34 1013.85 1013.27 1012.61 1011.88 1011.10 1010.29 1009.48 1008.69 1007.95 1007.26 1006.63 1006.04 1005.49 1004.95 1004.40 1003.83 1003.23 1002.60 1001.96 1001.33 1000.74 1000.23 999.85 999.61 999.54 999.63 999.85 1000.19 1000.58 1000.98 1001.33 1001.58 1001.69 1001.66 1001.49 1001.21 1000.86 1000.49
1014.91 1014.67 1014.39 1014.05 1013.64 1013.15 1012.57 1011.92 1011.21 1010.44 1009.65 1008.86 1008.08 1007.33 1006.61 1005.93 1005.26 1004.61 1003.94 1003.24 1002.50 1001.74 1000.95 1000.17 999.43 998.77 998.24 997.87 997.68 997.68 997.87 998.20 998.64 999.13 999.61 1000.01 1000.29 1000.42 1000.39 1000.22 999.92 999.56 999.20
1014.21 1013.97 1013.70 1013.37 1012.97 1012.50 1011.95 1011.32 1010.64 1009.90 1009.14 1008.36 1007.58 1006.81 1006.05 1005.29 1004.51 1003.72 1002.88 1002.00 1001.07 1000.12 999.16 998.23 997.38 996.65 996.08 995.73 995.59 995.67 995.95 996.38 996.93 997.51 998.06 998.52 998.84 999.00 998.98 998.81 998.52 998.18 997.84
1013.57 1013.34 1013.08 1012.76 1012.38 1011.94 1011.42 1010.83 1010.18 1009.47 1008.74 1007.97 1007.18 1006.38 1005.55 1004.70 1003.79 1002.84 1001.82 1000.73 999.60 998.45 997.30 996.22 995.24 994.43 993.82 993.45 993.34 993.48 993.82 994.34 994.97 995.62 996.24 996.76 997.13 997.32 997.34 997.21 996.96 996.66 996.37
1013.07 1012.84 1012.58 1012.28 1011.91 1011.49 1011.00 1010.44 1009.83 1009.15 1008.44 1007.68 1006.88 1006.04 1005.14 1004.18 1003.15 1002.03 1000.82 999.54 998.21 996.85 995.52 994.28 993.17 992.25 991.57 991.17 991.05 991.19 991.56 992.12 992.78 993.49 994.16 994.72 995.14 995.39 995.47 995.40 995.22 995.01 994.81
Thickness
5510 5517 5521 5526 5529 5534 5538 5542 5546 5550 5554 5558 5561 5563 5564 5566 5566 5566 5567 5567 5567 5567 5567 5567 5567 5567 5565 5565 5565 5564 5563 5562 5558 5557 5556 5554 5553 5551 5550 5549 5548 5547 5545
5499 5505 5509 5514 5518 5523 5527 5531 5535 5539 5544 5548 5551 5554 5556 5557 5558 5558 5558 5558 5558 5558 5558 5558 5557 5557 5556 5555 5555 5555 5554 5553 5551 5547 5545 5544 5542 5541 5540 5539 5538 5537 5535
5488 5493 5498 5502 5507 5512 5517 5521 5524 5529 5533 5536 5540 5543 5546 5547 5548 5548 5548 5548 5549 5550 5549 5549 5548 5547 5547 5546 5546 5545 5545 5544 5542 5540 5537 5535 5533 5531 5529 5528 5527 5526 5525
5476 5482 5487 5491 5496 5502 5506 5510 5514 5518 5522 5525 5530 5533 5535 5537 5537 5538 5538 5538 5539 5539 5540 5540 5539 5539 5538 5537 5537 5536 5535 5534 5532 5530 5528 5525 5523 5520 5518 5517 5516 5515 5515
5465 5470 5474 5480 5485 5491 5496 5500 5504 5507 5512 5515 5519 5522 5524 5526 5527 5527 5527 5528 5528 5529 5529 5529 5530 5530 5530 5529 5528 5527 5526 5524 5522 5519 5517 5515 5513 5511 5509 5507 5506 5505 5504
5455 5459 5464 5469 5474 5479 5485 5490 5494 5497 5501 5505 5508 5511 5513 5514 5516 5517 5517 5517 5518 5518 5518 5519 5519 5519 5519 5519 5518 5518 5518 5516 5513 5511 5508 5507 5505 5503 5500 5498 5495 5494 5493
5444 5448 5454 5459 5463 5468 5473 5478 5482 5486 5489 5493 5495 5498 5501 5503 5505 5506 5506 5507 5507 5508 5508 5508 5508 5508 5508 5508 5507 5507 5506 5506 5505 5503 5500 5499 5496 5495 5492 5489 5486 5484 5483
5434 5438 5443 5447 5452 5456 5460 5465 5469 5473 5476 5479 5482 5485 5488 5490 5492 5494 5494 5495 5496 5497 5498 5498 5498 5497 5497 5496 5495 5494 5493 5493 5493 5492 5491 5490 5488 5485 5482 5480 5477 5473 5471
5425 5429 5433 5436 5440 5444 5448 5452 5456 5459 5462 5465 5469 5472 5474 5476 5479 5481 5481 5482 5483 5485 5486 5486 5486 5486 5486 5485 5484 5483 5481 5480 5480 5480 5479 5477 5476 5474 5471 5467 5464 5460 5459
5413 5418 5422 5425 5428 5432 5435 5439 5442 5446 5449 5452 5455 5458 5461 5463 5465 5468 5468 5469 5471 5471 5472 5473 5474 5475 5474 5473 5472 5471 5469 5468 5467 5466 5465 5464 5462 5460 5458 5455 5453 5450 5448
5401 5406 5410 5413 5416 5419 5423 5426 5429 5432 5436 5439 5442 5445 5448 5450 5452 5454 5456 5457 5458 5458 5459 5460 5461 5461 5461 5461 5460 5460 5459 5456 5454 5453 5452 5450 5449 5447 5445 5443 5441 5439 5437
5390 5393 5397 5401 5404 5408 5411 5413 5416 5419 5423 5425 5428 5430 5433 5435 5438 5440 5442 5444 5445 5445 5446 5447 5447 5448 5448 5448 5447 5447 5446 5444 5441 5440 5439 5438 5436 5434 5433 5431 5429 5428 5426
5378 5381 5385 5388 5392 5395 5398 5401 5404 5407 5410 5413 5415 5416 5419 5422 5424 5426 5428 5430 5431 5432 5433 5434 5434 5435 5435 5434 5434 5433 5432 5430 5429 5427 5426 5425 5423 5422 5420 5418 5417 5415 5414
5366 5369 5373 5376 5379 5382 5385 5389 5392 5394 5397 5399 5402 5404 5406 5408 5410 5411 5412 5414 5416 5417 5418 5419 5419 5420 5420 5420 5420 5419 5418 5417 5416 5415 5414 5411 5410 5409 5407 5405 5404 5403 5401
5354 5357 5361 5364 5366 5369 5371 5374 5378 5381 5384 5387 5389 5392 5394 5396 5397 5399 5399 5401 5402 5403 5403 5404 5405 5405 5405 5405 5405 5405 5404 5403 5402 5402 5400 5399 5397 5396 5394 5393 5391 5389 5387
5343 5346 5348 5351 5354 5356 5359 5361 5364 5368 5371 5374 5377 5379 5382 5384 5385 5386 5387 5388 5389 5390 5390 5391 5391 5392 5392 5392 5391 5391 5390 5390 5389 5388 5387 5386 5385 5383 5381 5380 5378 5377 5375
5331 5334 5337 5339 5342 5344 5347 5350 5352 5354 5357 5360 5363 5366 5368 5370 5372 5374 5375 5376 5376 5377 5377 5377 5378 5378 5379 5378 5378 5378 5377 5377 5377 5376 5375 5374 5373 5371 5370 5368 5366 5365 5364
5321 5323 5326 5328 5331 5333 5335 5337 5339 5341 5343 5345 5348 5351 5354 5357 5359 5360 5361 5362 5362 5362 5363 5364 5365 5365 5366 5366 5365 5365 5365 5365 5364 5364 5364 5362 5361 5359 5358 5357 5355 5354 5353
5311 5313 5315 5318 5320 5322 5324 5326 5327 5329 5331 5332 5334 5337 5340 5342 5344 5346 5347 5347 5348 5349 5350 5351 5352 5352 5353 5353 5353 5353 5353 5353 5353 5353 5352 5351 5350 5348 5347 5346 5345 5344 5341
5300 5303 5305 5308 5310 5312 5314 5315 5317 5318 5319 5321 5322 5324 5326 5329 5330 5331 5332 5333 5335 5336 5337 5338 5339 5340 5341 5341 5341 5342 5341 5342 5342 5342 5341 5339 5338 5337 5336 5335 5334 5332 5331
5290 5292 5295 5297 5299 5301 5303 5304 5306 5307 5308 5309 5310 5313 5315 5316 5317 5318 5319 5321 5322 5324 5325 5326 5327 5328 5329 5329 5330 5330 5330 5331 5330 5330 5330 5329 5327 5326 5326 5324 5323 5322 5321
5279 5282 5284 5286 5288 5290 5291 5293 5295 5296 5297 5298 5299 5301 5303 5304 5305 5306 5308 5309 5310 5312 5313 5315 5316 5317 5318 5318 5318 5319 5319 5319 5319 5319 5318 5318 5317 5316 5314 5313 5313 5312 5311
5269 5271 5273 5275 5277 5280 5281 5282 5284 5285 5286 5287 5288 5290 5291 5292 5293 5294 5296 5297 5299 5300 5302 5303 5305 5306 5307 5307 5308 5308 5308 5308 5308 5308 5307 5307 5306 5305 5304 5304 5303 5302 5302
5259 5261 5263 5265 5267 5269 5270 5271 5272 5274 5275 5276 5277 5278 5279 5281 5282 5283 5284 5286 5288 5289 5291 5292 5294 5295 5296 5297 5297 5297 5298 5298 5298 5297 5297 5297 5296 5296 5295 5295 5294 5294 5294
5249 5251 5253 5255 5257 5258 5259 5260 5262 5263 5264 5265 5266 5267 5268 5270 5271 5272 5274 5275 5277 5279 5280 5281 5283 5284 5286 5287 5287 5288 5288 5288 5288 5288 5288 5287 5287 5286 5286 5286 5286 5286 5286
5239 5241 5243 5244 5246 5247 5249 5250 5251 5252 5253 5254 5255 5256 5258 5259 5260 5261 5263 5265 5267 5268 5270 5271 5273 5274 5275 5277 5278 5278 5279 5279 5279 5279 5279 5279 5278 5278 5278 5278 5278 5278 5278